Location: Chmeln�
(49.6483°N, 14.9871°E)
Time: 06:49:05
(UTC+00:00)

Lacrosse 5 rocket - Pass Details

Date: 26 January 2021
Orbit: 465 x 630 km, 57.0° (Epoch: 06 March)

Event Time Altitude Azimuth Distance (km) Brightness Sun altitude
Exits shadow 04:45:00 11° 204° (SSW) 1,623 3.5 -18.5°
Drops below altitude 10° 04:45:21 10° 199° (SSW) 1,699 3.7 -18.5°
Sets 04:48:08 0° 176° (S) 2,531 4.9 -18.0°
